Regional Weather Roundup
Issued by NWS

Home | Current Version | Previous Version | Graphics & Text | Print | Product List | Glossary On
Versions: 1 2 3 4 5 6 7 8 9 10 11 12 13 14 15 16 17 18 19 20 21 22 23 24 25 26 27 28
000
ASUS45 KBOU 160907
RWRCO

WEATHER ROUNDUP FOR COLORADO
NATIONAL WEATHER SERVICE DENVER/BOULDER CO
300 AM MDT MON OCT 16 2017

NOTE: "FAIR" INDICATES FEW OR NO CLOUDS BELOW 12000 FEET WITH NO
SIGNIFICANT WEATHER AND/OR OBSTRUCTIONS TO VISIBILITY.

COZ001>005-013-030-031-161000-
...NORTHWEST COLORADO...

CITY           SKY/WX    TMP DP  RH WIND       PRES   REMARKS
CRAIG          FAIR      24  18  77 CALM      30.47F
HAYDEN         FAIR      32  16  51 E10       30.49S WCI  24
MEEKER         FAIR      28  17  63 CALM      30.48F
RABBIT EARS PA FAIR      36   3  25 W7        30.59F
STEAMBOAT SPGS FAIR      30  15  55 CALM      30.50S
WALDEN         FAIR      23  12  63 SE8       30.50F WCI  14
$$

COZ006>008-011-161000-
...WEST CENTRAL VALLEYS...

CITY           SKY/WX    TMP DP  RH WIND       PRES   REMARKS
GRAND JUNCTION FAIR      39  13  34 SE6       30.46S
MONTROSE       FAIR      31  14  49 S8        30.51S WCI  23
EAGLE          FAIR      27  18  69 E3        30.56R
RIFLE          FAIR      32  18  56 CALM      30.50S
DELTA          FAIR      34  10  37 CALM      30.49S
NUCLA          FAIR      34   7  32 SE7       30.52F WCI  28
$$

COZ017>023-064>068-161000-
...SOUTHWEST COLORADO...

CITY           SKY/WX    TMP DP  RH WIND       PRES   REMARKS
DURANGO        FAIR      25  12  58 N5        30.52S WCI  19
CORTEZ         FAIR      25  15  66 NE3       30.49S
PAGOSA SPRINGS FAIR      31  12  44 CALM      30.56F
TELLURIDE      NOT AVBL
WOLF CREEK PAS NOT AVBL
$$

COZ009-010-012-014-032>034-037-058>063-161000-
...CENTRAL COLORADO...

CITY           SKY/WX    TMP DP  RH WIND       PRES   REMARKS
ASPEN          FAIR      27  13  55 SW7       30.53S WCI  19
BUENA VISTA    FAIR      28  13  52 W6        30.54F WCI  22
COPPER MTN     FAIR      37 -11  12 SW8       30.68F
BERTHOUD PASS  FAIR      30  19  64 NW35G46   30.63F WCI  14
COTTONWOOD PAS FAIR      46  -9   9 CALM      30.59F
GUNNISON       FAIR      23  12  62 CALM      30.60S
KREMMLING      FAIR      25  19  80 CALM      30.56S
LEADVILLE      FAIR      33   0  24 N8        30.58F WCI  26
MONARCH PASS   FAIR      32   1  27 W25       30.79F WCI  19
SALIDA         NOT AVBL
SUNLIGHT       FAIR      34  -4  19 SW10G16   30.67F WCI  26
WILKERSON PASS FAIR      37  -6  15 W9G16     30.67S
$$

COZ069>075-161000-
...SAN LUIS VALLEY/SANGRE DE CRISTO MOUNTAINS...

CITY           SKY/WX    TMP DP  RH WIND       PRES   REMARKS
ALAMOSA        FAIR      25  14  63 NE3       30.54F
DEL NORTE      FAIR      37   8  29 W12       30.57S
LA VETA PASS   FAIR      36  14  41 MISG      30.70F
SAGUACHE       FAIR      30   7  37 NW7       30.56F WCI  23
$$

COZ035-036-038>040-161000-
...NORTHERN COLORADO FRONT RANGE...

CITY           SKY/WX    TMP DP  RH WIND       PRES   REMARKS
DENVER INTL AP FAIR      41  23  48 SW10      30.35F
DMNS CITY PARK   N/A     41  24  52 SE8       30.35F
AURORA         CLEAR     41  22  46 S10       30.36F
FRONT RANGE AP FAIR      37  28  70 S10G18    30.36F
ERIE MUNI ARPT FAIR      32  29  88 CALM      30.40F
BOULDER MUN AP FAIR      41  28  60 CALM      30.34F HAZE
CENTENNIAL     FAIR      42  21  43 S7        30.37F
BROOMFIELD     FAIR      43  25  49 SW8       30.36F
FORT COLLINS   FAIR      37  30  75 N5        30.35F
LONGMONT       FAIR      35  29  78 CALM      30.36F
$$

COZ041-046-047-076>085-087-088-161000-
...PIKES PEAK/PALMER DIVIDE AND SOUTHERN FOOTHILLS...

CITY           SKY/WX    TMP DP  RH WIND       PRES   REMARKS
COLO. SPRINGS  FAIR      34  22  61 NE7       30.42F WCI  28
A. F. ACADEMY  FAIR      31  20  62 N13       30.41F WCI  21
SCHRIEVER AFB  FAIR      39  19  45 MISG      30.43F
CHEYENNE MTN   FAIR      49   9  19 CALM      30.38F
ELLICOTT       FAIR     N/A N/A N/A CALM      30.41F
FALCON         FAIR      34  19  54 W3        30.44F
FORT CARSON    FAIR      37  20  49 N8        30.40F
LIMON          FAIR      24  22  91 N6        30.39F WCI  17
MONUMENT HILL  NOT AVBL
CANON CITY     CLEAR     45  21  39 SW10      30.39F
WALSENBURG     FAIR      37  21  52 W5        30.42F
TRINIDAD       FAIR      40  27  59 W12       30.42F
$$

COZ042>045-048>051-090-091-161000-
...NORTHEAST COLORADO...

CITY           SKY/WX    TMP DP  RH WIND       PRES   REMARKS
GREELEY ARPT   FAIR      31  28  89 NE3       30.36F
AKRON          FAIR      45  23  42 SW14      30.32F
BURLINGTON     FAIR      32  27  81 SW8       30.36F WCI  25
WRAY           FAIR      39  30  70 W8        30.33F
YUMA           FAIR      36  28  75 SW9       30.31F
STERLING       FAIR      32  28  86 W7        30.31F WCI  26
HOLYOKE        FAIR      34  30  86 SW3       30.33F
FORT MORGAN    FAIR      29  24  82 W8        30.34F WCI  21
$$

COZ086-089-092>099-161000-
...SOUTHEAST COLORADO...

CITY           SKY/WX    TMP DP  RH WIND       PRES   REMARKS
PUEBLO         FAIR      32  24  72 NW5       30.39F WCI  27
LA JUNTA       FAIR      37  29  72 W9        30.38F
LAMAR          FAIR      30  25  81 CALM      30.36F
SPRINGFIELD      N/A     31  29  92 SW8       30.39F WCI  23
$$




USA.gov is the U.S. government's official web portal to all federal, state and local government web resources and services.